CW1575 Weather Reports


Display with metric or nautical units.
time (UTC)temp
F
wind
direction
speed
MPH
gust
MPH
rain 1hr
in
rain 24hr
in
rain mn
in
humidity
%
barometer
mb
20260906064850 70 0 1.0 3.0 0.00 0.00 0.00 52 1016.7
20260906064352 71 0 1.0 3.0 0.00 0.00 0.00 52 1016.8
20260906063846 71 0 1.0 3.0 0.00 0.00 0.00 51 1016.8
20260906063350 71 0 0.0 1.0 0.00 0.00 0.00 52 1016.8
20260906062848 71 0 0.0 1.0 0.00 0.00 0.00 51 1016.9
20260906061847 72 0 0.0 1.0 0.00 0.00 0.00 51 1016.9
20260906061348 72 0 0.0 1.0 0.00 0.00 0.00 50 1017.0
20260906060850 72 0 0.0 1.0 0.00 0.00 0.00 50 1017.0
20260906055849 72 0 0.0 2.0 0.00 0.00 0.00 49 1017.0
20260906055343 72 0 1.0 4.0 0.00 0.00 0.00 49 1017.1
20260906054837 72 0 2.0 8.0 0.00 0.00 0.00 49 1017.1
20260906054330 72 0 2.0 8.0 0.00 0.00 0.00 49 1017.1
20260906053825 72 0 0.0 4.0 0.00 0.00 0.00 48 1017.1
20260906053320 72 0 0.0 0.0 0.00 0.00 0.00 47 1017.1
20260906052813 72 0 0.0 0.0 0.00 0.00 0.00 47 1017.4
20260906052308 72 0 0.0 4.0 0.00 0.00 0.00 46 1017.1
20260906051255 72 0 0.0 0.0 0.00 0.00 0.00 46 1017.5
20260906050754 72 0 0.0 0.0 0.00 0.00 0.00 46 1017.6
20260906045753 72 0 1.0 3.0 0.00 0.00 0.00 47 1017.7
20260906045250 72 0 1.0 4.0 0.00 0.00 0.00 46 1017.7
20260906044749 72 0 1.0 4.0 0.00 0.00 0.00 46 1017.8
20260906044249 72 0 0.0 4.0 0.00 0.00 0.00 46 1017.9
20260906043749 72 0 0.0 2.0 0.00 0.00 0.00 46 1017.7
20260906042749 72 0 0.0 2.0 0.00 0.00 0.00 47 1017.7
20260906041746 72 0 0.0 1.0 0.00 0.00 0.00 45 1017.2
20260906035738 73 0 0.0 1.0 0.00 0.00 0.00 44 1016.5
20260906035237 73 0 0.0 1.0 0.00 0.00 0.00 44 1016.3
20260906034734 74 0 0.0 1.0 0.00 0.00 0.00 44 1016.3
20260906034236 74 0 0.0 2.0 0.00 0.00 0.00 43 1016.3
20260906033730 74 0 0.0 2.0 0.00 0.00 0.00 43 1016.2
20260906032717 75 0 0.0 1.0 0.00 0.00 0.00 41 1016.2
20260906032213 75 0 0.0 1.0 0.00 0.00 0.00 41 1016.3
20260906031159 76 0 0.0 2.0 0.00 0.00 0.00 40 1016.2
20260906030654 77 0 0.0 2.0 0.00 0.00 0.00 39 1016.1
20260906030148 77 0 0.0 2.0 0.00 0.00 0.00 37 1015.8
20260906025642 78 0 0.0 0.0 0.00 0.00 0.00 36 1015.6
20260906024655 78 0 0.0 1.0 0.00 0.00 0.00 35 1015.4
20260906023638 79 0 0.0 1.0 0.00 0.00 0.00 34 1015.4
20260906023134 80 0 0.0 2.0 0.00 0.00 0.00 34 1015.2
20260906022634 80 0 1.0 3.0 0.00 0.00 0.00 33 1015.4
20260906022131 80 0 1.0 3.0 0.00 0.00 0.00 33 1015.4
20260906021644 80 0 1.0 3.0 0.00 0.00 0.00 33 1015.2
20260906021131 81 0 1.0 3.0 0.00 0.00 0.00 33 1015.1
20260906020643 81 0 1.0 4.0 0.00 0.00 0.00 33 1015.1
20260906020132 81 0 2.0 4.0 0.00 0.00 0.00 32 1015.0
20260906015628 82 0 2.0 5.0 0.00 0.00 0.00 31 1015.0
20260906015130 82 0 2.0 5.0 0.00 0.00 0.00 31 1014.9
20260906014627 82 323 3.0 7.0 0.00 0.00 0.00 31 1014.9
20260906014125 83 319 3.0 7.0 0.00 0.00 0.00 30 1014.8
20260906013624 83 0 3.0 6.0 0.00 0.00 0.00 30 1014.7
20260906013123 83 0 3.0 8.0 0.00 0.00 0.00 30 1014.7
20260906012122 84 0 4.0 8.0 0.00 0.00 0.00 30 1014.8
20260906011622 84 346 3.0 8.0 0.00 0.00 0.00 29 1014.8
20260906010125 84 0 3.0 6.0 0.00 0.00 0.00 28 1014.5
20260906005623 85 346 3.0 6.0 0.00 0.00 0.00 28 1014.7
20260906005123 85 313 2.0 6.0 0.00 0.00 0.00 28 1014.7
20260906004623 85 16 1.0 6.0 0.00 0.00 0.00 29 1014.5
20260906004121 85 0 0.0 1.0 0.00 0.00 0.00 30 1014.5
20260906003116 86 317 0.0 3.0 0.00 0.00 0.00 29 1014.5
20260906002617 86 126 0.0 3.0 0.00 0.00 0.00 30 1014.5
20260906002113 87 126 0.0 3.0 0.00 0.00 0.00 30 1014.5
20260906001613 87 126 0.0 1.0 0.00 0.00 0.00 29 1014.5
20260906001111 87 126 0.0 1.0 0.00 0.00 0.00 30 1014.5
20260906000612 87 126 0.0 1.0 0.00 0.00 0.00 28 1014.5
20260906000113 87 126 0.0 2.0 0.00 0.00 0.00 28 1014.4
20260905235611 87 126 0.0 2.0 0.00 0.00 0.00 26 1014.4
20260905235106 87 126 0.0 1.0 0.00 0.00 0.00 28 1014.4
20260905234602 87 126 0.0 1.0 0.00 0.00 0.00 28 1014.4
20260905234059 87 126 0.0 1.0 0.00 0.00 0.00 26 1014.4
20260905233548 87 126 0.0 0.0 0.00 0.00 0.00 29 1014.4
20260905233048 87 0 0.0 0.0 0.00 0.00 0.00 28 1014.4
20260905232545 87 0 0.0 0.0 0.00 0.00 0.00 28 1014.3
20260905231544 88 0 0.0 0.0 0.00 0.00 0.00 27 1014.4
20260905231040 88 126 0.0 0.0 0.00 0.00 0.00 27 1014.4
20260905230539 89 0 0.0 1.0 0.00 0.00 0.00 26 1014.5
20260905230049 89 0 0.0 2.0 0.00 0.00 0.00 28 1014.4
20260905225538 89 126 0.0 2.0 0.00 0.00 0.00 26 1014.3
20260905225036 89 0 0.0 1.0 0.00 0.00 0.00 26 1014.3
20260905224031 90 126 0.0 3.0 0.00 0.00 0.00 24 1014.4
20260905223530 90 126 1.0 5.0 0.00 0.00 0.00 25 1014.3
20260905222536 91 11 1.0 5.0 0.00 0.00 0.00 24 1014.4
20260905222034 91 26 1.0 5.0 0.00 0.00 0.00 24 1014.5
20260905221030 91 43 1.0 2.0 0.00 0.00 0.00 24 1014.5
20260905220530 91 112 1.0 5.0 0.00 0.00 0.00 25 1014.5
20260905220019 91 117 2.0 8.0 0.00 0.00 0.00 25 1014.5
20260905215514 91 111 3.0 8.0 0.00 0.00 0.00 25 1014.7
20260905215013 91 104 2.0 7.0 0.00 0.00 0.00 24 1014.7
20260905214512 91 179 2.0 5.0 0.00 0.00 0.00 26 1014.7
20260905214019 91 172 1.0 4.0 0.00 0.00 0.00 26 1014.8
20260905213517 91 121 1.0 3.0 0.00 0.00 0.00 23 1014.9
20260905213018 91 121 1.0 3.0 0.00 0.00 0.00 25 1015.0
20260905212515 91 74 0.0 2.0 0.00 0.00 0.00 25 1015.1
20260905212017 91 117 1.0 4.0 0.00 0.00 0.00 26 1015.4
20260905211014 92 0 1.0 4.0 0.00 0.00 0.00 24 1015.2
20260905210513 92 142 1.0 3.0 0.00 0.00 0.00 25 1015.2
20260905210014 92 142 1.0 3.0 0.00 0.00 0.00 24 1015.1
20260905205513 93 71 2.0 9.0 0.00 0.00 0.00 23 1015.1
20260905205012 93 321 2.0 9.0 0.00 0.00 0.00 21 1015.2
20260905204511 94 306 2.0 8.0 0.00 0.00 0.00 24 1015.4
20260905204012 94 46 3.0 9.0 0.00 0.00 0.00 23 1015.5
20260905203504 94 25 2.0 10.0 0.00 0.00 0.00 24 1015.6
20260905202506 94 311 2.0 8.0 0.00 0.00 0.00 26 1015.6
20260905202004 94 34 2.0 8.0 0.00 0.00 0.00 26 1015.7
20260905201004 93 227 1.0 9.0 0.00 0.00 0.00 25 1015.9
20260905200502 93 65 2.0 9.0 0.00 0.00 0.00 24 1016.1
20260905200004 93 302 2.0 9.0 0.00 0.00 0.00 23 1016.1
20260905195504 93 24 3.0 9.0 0.00 0.00 0.00 26 1016.1
20260905195002 92 308 3.0 8.0 0.00 0.00 0.00 27 1016.2
20260905194505 92 36 3.0 10.0 0.00 0.00 0.00 27 1016.1
20260905194003 92 321 3.0 10.0 0.00 0.00 0.00 26 1016.1
20260905193503 92 58 3.0 9.0 0.00 0.00 0.00 25 1016.2
20260905193002 92 46 2.0 9.0 0.00 0.00 0.00 26 1016.3
20260905192504 91 341 2.0 7.0 0.00 0.00 0.00 25 1016.3
20260905192005 91 22 2.0 6.0 0.00 0.00 0.00 27 1016.5
20260905191502 91 38 2.0 8.0 0.00 0.00 0.00 26 1016.5
20260905191003 90 51 2.0 8.0 0.00 0.00 0.00 27 1016.8
20260905190500 90 19 3.0 10.0 0.00 0.00 0.00 26 1016.7
20260905190002 90 351 3.0 10.0 0.00 0.00 0.00 25 1016.8
20260905185459 90 29 3.0 6.0 0.00 0.00 0.00 28 1016.7
20260905184958 89 46 2.0 7.0 0.00 0.00 0.00 27 1016.8
20260905183957 89 57 2.0 7.0 0.00 0.00 0.00 28 1016.8
20260905183456 88 31 1.0 7.0 0.00 0.00 0.00 27 1016.8
20260905182957 87 88 1.0 4.0 0.00 0.00 0.00 30 1016.8
20260905182457 87 44 2.0 8.0 0.00 0.00 0.00 30 1016.9
20260905181954 86 148 3.0 11.0 0.00 0.00 0.00 31 1017.0
20260905181453 86 126 2.0 11.0 0.00 0.00 0.00 29 1016.9
20260905180953 86 94 1.0 6.0 0.00 0.00 0.00 31 1017.0
20260905180504 86 108 1.0 3.0 0.00 0.00 0.00 30 1017.0
20260905175951 86 29 1.0 4.0 0.00 0.00 0.00 31 1017.2
20260905175446 86 26 1.0 4.0 0.00 0.00 0.00 34 1017.2
20260905174940 85 80 1.0 3.0 0.00 0.00 0.00 32 1017.1
20260905174434 85 134 1.0 7.0 0.00 0.00 0.00 33 1017.2
20260905173927 85 34 1.0 7.0 0.00 0.00 0.00 34 1017.1
20260905173421 85 126 1.0 4.0 0.00 0.00 0.00 33 1017.1
20260905172928 85 0 1.0 4.0 0.00 0.00 0.00 36 1017.2
20260905172409 85 0 1.0 4.0 0.00 0.00 0.00 33 1017.2
20260905171358 85 74 1.0 3.0 0.00 0.00 0.00 34 1017.1
20260905170851 86 0 1.0 3.0 0.00 0.00 0.00 33 1017.0
20260905170348 86 100 1.0 4.0 0.00 0.00 0.00 31 1017.0
20260905165845 86 123 1.0 5.0 0.00 0.00 0.00 33 1017.1
20260905165334 86 85 1.0 7.0 0.00 0.00 0.00 33 1017.0
20260905164828 85 130 1.0 7.0 0.00 0.00 0.00 33 1016.9
20260905164325 85 60 0.0 2.0 0.00 0.00 0.00 34 1017.0
20260905163815 85 0 1.0 6.0 0.00 0.00 0.00 35 1016.9
20260905163310 84 123 1.0 6.0 0.00 0.00 0.00 36 1016.9
20260905162306 84 53 2.0 7.0 0.00 0.00 0.00 36 1017.0
20260905161803 83 109 1.0 7.0 0.00 0.00 0.00 36 1016.9
20260905161305 83 109 1.0 7.0 0.00 0.00 0.00 36 1016.9
20260905160304 82 113 2.0 6.0 0.00 0.00 0.00 36 1017.0
20260905155801 82 0 2.0 6.0 0.00 0.00 0.00 34 1017.0
20260905154259 79 0 0.0 2.0 0.00 0.00 0.00 44 1017.0
20260905153757 78 118 1.0 3.0 0.00 0.00 0.00 48 1016.9
20260905153255 77 123 1.0 3.0 0.00 0.00 0.00 48 1016.9
20260905152755 76 153 0.0 2.0 0.00 0.00 0.00 51 1016.9
20260905152256 75 155 1.0 3.0 0.00 0.00 0.00 49 1016.9
20260905151753 74 155 1.0 3.0 0.00 0.00 0.00 51 1016.9
20260905151255 73 118 1.0 3.0 0.00 0.00 0.00 52 1016.9
20260905150256 71 0 0.0 0.0 0.00 0.00 0.00 62 1016.9
20260905145801 71 0 0.0 0.0 0.00 0.00 0.00 61 1017.0
20260905145249 70 0 0.0 0.0 0.00 0.00 0.00 61 1017.1
20260905144743 70 0 0.0 0.0 0.00 0.00 0.00 58 1017.0
20260905144237 69 0 0.0 0.0 0.00 0.00 0.00 58 1017.0
20260905143730 69 0 0.0 0.0 0.00 0.00 0.00 58 1017.1
20260905142213 66 0 0.0 0.0 0.00 0.00 0.00 65 1017.1
20260905141706 65 0 0.0 0.0 0.00 0.00 0.00 64 1017.1
20260905141201 64 0 0.0 1.0 0.00 0.00 0.00 66 1017.0
20260905140655 63 0 0.0 2.0 0.00 0.00 0.00 67 1016.9
20260905140148 62 0 0.0 2.0 0.00 0.00 0.00 70 1016.9
20260905135642 61 0 0.0 3.0 0.00 0.00 0.00 74 1016.9
20260905135137 60 0 0.0 3.0 0.00 0.00 0.00 75 1016.9
20260905134630 59 0 0.0 2.0 0.00 0.00 0.00 77 1016.9
20260905134125 58 0 0.0 0.0 0.00 0.00 0.00 77 1016.8
20260905133619 58 0 0.0 0.0 0.00 0.00 0.00 77 1016.8
20260905133113 58 0 0.0 0.0 0.00 0.00 0.00 76 1016.8
20260905132620 58 0 0.0 0.0 0.00 0.00 0.00 76 1016.7
20260905132100 58 0 0.0 0.0 0.00 0.00 0.00 76 1016.7
20260905131555 58 0 0.0 0.0 0.00 0.00 0.00 76 1016.7
20260905131101 58 0 0.0 0.0 0.00 0.00 0.00 75 1016.7
20260905130543 58 0 0.0 1.0 0.00 0.00 0.00 74 1016.8
20260905130050 58 0 0.0 1.0 0.00 0.00 0.00 74 1016.7
20260905125531 58 0 0.0 0.0 0.00 0.00 0.00 74 1016.5
20260905125025 58 0 0.0 0.0 0.00 0.00 0.00 74 1016.5
20260905124532 58 0 0.0 0.0 0.00 0.00 0.00 73 1016.4
20260905124012 58 0 0.0 0.0 0.00 0.00 0.00 72 1016.3
20260905123511 58 0 0.0 0.0 0.00 0.00 0.00 72 1016.3
20260905123008 59 0 0.0 0.0 0.00 0.00 0.00 72 1016.3
20260905122521 59 0 0.0 0.0 0.00 0.00 0.00 71 1016.2
20260905122007 59 0 0.0 0.0 0.00 0.00 0.00 70 1016.2
20260905121506 59 0 0.0 0.0 0.00 0.00 0.00 69 1016.2
20260905121005 59 0 0.0 0.0 0.00 0.00 0.00 69 1016.1
20260905120515 59 0 0.0 1.0 0.00 0.00 0.00 68 1016.1
20260905115001 59 0 0.0 1.0 0.00 0.00 0.00 67 1016.2
20260905114500 60 0 0.0 1.0 0.00 0.00 0.00 66 1016.1
20260905113956 60 0 0.0 0.0 0.00 0.00 0.00 66 1015.9
20260905113456 60 0 0.0 0.0 0.00 0.00 0.00 66 1016.1
20260905112955 60 0 0.0 0.0 0.00 0.00 0.00 66 1015.8
20260905112454 60 0 0.0 1.0 0.00 0.00 0.00 66 1015.7
20260905111951 60 0 0.0 1.0 0.00 0.00 0.00 66 1015.7
20260905110951 60 0 0.0 0.0 0.00 0.00 0.00 63 1015.7
20260905105444 61 0 0.0 0.0 0.00 0.00 0.00 63 1015.7
20260905104937 61 0 0.0 1.0 0.00 0.00 0.00 63 1015.7
20260905104431 61 0 0.0 1.0 0.00 0.00 0.00 64 1015.7
20260905103420 61 182 0.0 0.0 0.00 0.00 0.00 63 1015.7
20260905102915 61 182 0.0 0.0 0.00 0.00 0.00 63 1015.6
20260905101914 62 182 0.0 1.0 0.00 0.00 0.00 63 1015.5
20260905101417 62 182 0.0 0.0 0.00 0.00 0.00 63 1015.6
20260905100916 62 182 0.0 0.0 0.00 0.00 0.00 61 1015.5
20260905095915 62 182 0.0 0.0 0.00 0.00 0.00 62 1015.5
20260905094913 62 182 0.0 0.0 0.00 0.00 0.00 63 1015.4
20260905094412 62 182 0.0 0.0 0.00 0.00 0.00 62 1015.4
20260905093913 62 182 0.0 0.0 0.00 0.00 0.00 63 1015.5
20260905093410 62 182 0.0 0.0 0.00 0.00 0.00 63 1015.4
20260905091912 63 182 0.0 0.0 0.00 0.00 0.00 63 1015.0
20260905091409 63 182 0.0 2.0 0.00 0.00 0.00 63 1015.0
20260905090407 63 182 0.0 0.0 0.00 0.00 0.00 64 1015.1
20260905085902 63 182 0.0 0.0 0.00 0.00 0.00 63 1015.1
20260905085402 64 182 0.0 0.0 0.00 0.00 0.00 63 1015.2
20260905084902 64 182 0.0 0.0 0.00 0.00 0.00 62 1015.0
20260905084402 64 182 0.0 0.0 0.00 0.00 0.00 59 1015.0
20260905083902 64 182 0.0 0.0 0.00 0.00 0.00 59 1014.9
20260905083403 64 182 0.0 0.0 0.00 0.00 0.00 59 1015.0
20260905082902 64 182 0.0 0.0 0.00 0.00 0.00 59 1015.1
20260905081858 65 182 0.0 2.0 0.00 0.00 0.00 58 1015.0
20260905081355 65 182 0.0 2.0 0.00 0.00 0.00 59 1015.1
20260905080855 65 182 0.0 1.0 0.00 0.00 0.00 59 1015.1
20260905080357 65 182 0.0 0.0 0.00 0.00 0.00 58 1015.1
20260905075855 65 182 0.0 0.0 0.00 0.00 0.00 58 1015.0
20260905075352 65 182 0.0 0.0 0.00 0.00 0.00 57 1015.1
20260905074905 66 182 0.0 0.0 0.00 0.00 0.00 57 1015.0
20260905074350 66 182 0.0 0.0 0.00 0.00 0.00 57 1015.1
20260905073347 66 182 0.0 0.0 0.00 0.00 0.00 56 1015.2
20260905072842 66 182 0.0 0.0 0.00 0.00 0.00 56 1015.2
20260905072338 67 182 0.0 1.0 0.00 0.00 0.00 56 1015.2
20260905071351 67 182 0.0 0.0 0.00 0.00 0.00 56 1015.2
20260905070840 67 182 0.0 1.0 0.00 0.00 0.00 56 1015.2
20260905070337 67 182 0.0 2.0 0.00 0.00 0.00 56 1015.2
20260905065836 68 182 0.0 2.0 0.00 0.00 0.00 56 1015.2
20260905065339 68 182 0.0 0.0 0.00 0.00 0.00 55 1015.2